GW5272 Weather Reports


time (UTC)temp
C
wind
direction
speed
KPH
gust
KPH
rain 1hr
cm
rain 24hr
cm
rain mn
cm
humidity
%
barometer
mb
20260510093436 9 212 3.2 4.8 0.00 0.00 0.00 93 1015.7
20260510092933 9 253 3.2 6.4 0.00 0.00 0.00 93 1015.4
20260510092431 8 254 3.2 9.7 0.00 0.00 0.00 94 1015.7
20260510091930 9 257 0.0 0.0 0.00 0.00 0.00 94 1015.2
20260510091427 9 239 1.6 3.2 0.00 0.00 0.00 93 1015.3
20260510090924 9 247 4.8 4.8 0.00 0.00 0.00 93 1015.2
20260510090420 9 221 1.6 6.4 0.00 0.00 0.00 94 1015.2
20260510085917 8 280 6.4 6.4 0.00 0.00 0.00 96 1015.1
20260510085412 7 234 0.0 0.0 0.00 0.00 0.00 98 1015.2
20260510084907 7 210 0.0 0.0 0.00 0.00 0.00 98 1015.3
20260510084405 7 190 0.0 0.0 0.00 0.00 0.00 97 1015.3
20260510083901 7 170 0.0 0.0 0.00 0.00 0.00 97 1015.2
20260510083358 7 232 0.0 0.0 0.00 0.00 0.00 98 1015.3
20260510082853 7 239 0.0 0.0 0.00 0.00 0.00 97 1015.2
20260510082351 7 232 0.0 0.0 0.00 0.00 0.00 97 1015.1
20260510081849 7 225 0.0 0.0 0.00 0.00 0.00 97 1015.2
20260510081346 7 222 0.0 0.0 0.00 0.00 0.00 96 1015.1
20260510080843 8 241 0.0 1.6 0.00 0.00 0.00 96 1015.1
20260510080336 7 190 1.6 3.2 0.00 0.00 0.00 97 1015.1
20260510075834 7 222 0.0 0.0 0.00 0.00 0.00 97 1015.3
20260510075332 7 220 0.0 0.0 0.00 0.00 0.00 97 1015.2
20260510074828 7 230 0.0 0.0 0.00 0.00 0.00 96 1015.1
20260510074325 7 228 0.0 0.0 0.00 0.00 0.00 96 1015.1
20260510073821 8 241 0.0 0.0 0.00 0.00 0.00 96 1015.3
20260510073317 8 217 0.0 0.0 0.00 0.00 0.00 95 1014.9
20260510072813 8 243 0.0 0.0 0.00 0.00 0.00 95 1015.1
20260510072310 8 263 0.0 0.0 0.00 0.00 0.00 95 1015.1
20260510071807 9 216 0.0 0.0 0.00 0.00 0.00 95 1015.0
20260510071303 9 214 0.0 1.6 0.00 0.00 0.00 95 1015.0
20260510070802 9 239 1.6 3.2 0.00 0.00 0.00 93 1015.1
20260510070259 8 250 1.6 3.2 0.00 0.00 0.00 95 1015.0
20260510065758 7 231 0.0 0.0 0.00 0.00 0.00 96 1015.0
20260510065255 7 233 0.0 0.0 0.00 0.00 0.00 96 1015.0
20260510064752 7 239 0.0 0.0 0.00 0.00 0.00 95 1015.0
20260510064250 7 228 0.0 0.0 0.00 0.00 0.00 94 1014.9
20260510063745 8 247 0.0 0.0 0.00 0.00 0.00 94 1015.1
20260510063242 8 241 1.6 4.8 0.00 0.00 0.00 94 1014.9
20260510062739 8 186 0.0 1.6 0.00 0.00 0.00 93 1014.9
20260510062235 8 268 1.6 3.2 0.00 0.00 0.00 93 1014.9
20260510061730 8 241 0.0 0.0 0.00 0.00 0.00 92 1015.0
20260510061228 9 256 0.0 1.6 0.00 0.00 0.00 91 1015.0
20260510060724 8 204 0.0 3.2 0.00 0.00 0.00 92 1014.9
20260510060220 8 249 0.0 3.2 0.00 0.00 0.00 91 1015.1
20260510055717 9 247 0.0 1.6 0.00 0.00 0.00 92 1015.3
20260510055216 9 233 0.0 1.6 0.00 0.00 0.00 91 1015.1
20260510054716 9 236 0.0 0.0 0.00 0.00 0.00 91 1015.2
20260510054212 9 238 3.2 3.2 0.00 0.00 0.00 90 1015.2
20260510053711 9 230 1.6 4.8 0.00 0.00 0.00 90 1015.4
20260510053208 9 267 1.6 3.2 0.00 0.00 0.00 91 1015.4
20260510052704 10 266 1.6 3.2 0.00 0.00 0.00 89 1015.3
20260510052200 9 227 0.0 3.2 0.00 0.00 0.00 90 1015.6
20260510051656 9 227 0.0 3.2 0.00 0.00 0.00 90 1015.6
20260510051153 9 256 0.0 0.0 0.00 0.00 0.00 91 1015.4
20260510050650 9 266 0.0 0.0 0.00 0.00 0.00 91 1015.6
20260510050147 9 237 0.0 0.0 0.00 0.00 0.00 91 1015.4
20260510045643 8 226 0.0 0.0 0.00 0.00 0.00 92 1015.6
20260510045140 9 254 0.0 0.0 0.00 0.00 0.00 90 1015.4
20260510044636 9 254 0.0 0.0 0.00 0.00 0.00 91 1015.3
20260510044134 8 236 1.6 4.8 0.00 0.00 0.00 93 1015.6
20260510043630 8 258 0.0 0.0 0.00 0.00 0.00 95 1015.1
20260510043126 7 230 0.0 0.0 0.00 0.00 0.00 96 1015.2
20260510042624 7 227 0.0 0.0 0.00 0.00 0.00 95 1015.2
20260510042119 7 231 0.0 0.0 0.00 0.00 0.00 95 1015.1
20260510041617 7 250 0.0 0.0 0.00 0.00 0.00 95 1015.1
20260510041114 7 272 0.0 0.0 0.00 0.00 0.00 95 1015.0
20260510040611 7 224 0.0 0.0 0.00 0.00 0.00 95 1015.0
20260510040107 7 226 0.0 0.0 0.00 0.00 0.00 95 1015.0
20260510035604 7 238 0.0 0.0 0.00 0.00 0.00 94 1014.8
20260510035104 8 244 0.0 0.0 0.00 0.00 0.00 94 1014.9
20260510034602 7 272 0.0 0.0 0.00 0.00 0.00 94 1014.9
20260510034058 7 273 0.0 0.0 0.00 0.00 0.00 94 1014.9
20260510033555 7 273 0.0 0.0 0.00 0.00 0.00 94 1014.7
20260510033052 7 250 0.0 0.0 0.00 0.00 0.00 94 1014.7
20260510032549 8 226 0.0 0.0 0.00 0.00 0.00 94 1014.8
20260510032044 7 229 0.0 0.0 0.00 0.00 0.00 94 1014.7
20260510031544 7 230 0.0 0.0 0.00 0.00 0.00 94 1014.9
20260510031041 7 233 0.0 0.0 0.00 0.00 0.00 93 1014.9
20260510030536 7 200 0.0 0.0 0.00 0.00 0.00 92 1014.8
20260510030034 8 200 0.0 0.0 0.00 0.00 0.00 92 1014.8
20260510025531 8 30 0.0 0.0 0.00 0.00 0.00 92 1014.8
20260510025029 8 30 0.0 0.0 0.00 0.00 0.00 91 1014.8
20260510024525 8 59 0.0 0.0 0.00 0.00 0.00 91 1014.7
20260510024021 8 118 0.0 0.0 0.00 0.00 0.00 91 1014.6
20260510023517 8 256 0.0 0.0 0.00 0.00 0.00 91 1014.8
20260510023015 8 264 0.0 0.0 0.00 0.00 0.00 90 1014.7
20260510022514 8 256 0.0 0.0 0.00 0.00 0.00 90 1014.6
20260510022014 8 209 0.0 0.0 0.00 0.00 0.00 89 1014.6
20260510021511 9 194 0.0 0.0 0.00 0.00 0.00 89 1014.4
20260510021008 9 205 0.0 0.0 0.00 0.00 0.00 89 1014.3
20260510020502 9 250 0.0 0.0 0.00 0.00 0.00 89 1014.3
20260510015958 9 202 0.0 0.0 0.00 0.00 0.00 89 1014.3
20260510015454 9 159 0.0 0.0 0.00 0.00 0.00 87 1014.3
20260510014949 10 159 0.0 0.0 0.00 0.00 0.00 86 1014.4
20260510014447 10 157 0.0 0.0 0.00 0.00 0.00 85 1014.2
20260510013944 10 211 0.0 0.0 0.00 0.00 0.00 83 1014.0
20260510013444 11 242 0.0 0.0 0.00 0.00 0.00 83 1013.7
20260510012940 11 236 0.0 0.0 0.00 0.00 0.00 83 1013.7
20260510012435 11 241 0.0 0.0 0.00 0.00 0.00 83 1013.6
20260510011930 11 243 0.0 0.0 0.00 0.00 0.00 83 1013.7
20260510011425 11 251 0.0 0.0 0.00 0.00 0.00 82 1013.4
20260510010921 11 238 0.0 0.0 0.00 0.00 0.00 80 1013.3
20260510010419 11 230 0.0 0.0 0.00 0.00 0.00 79 1013.2
20260510005915 12 246 0.0 0.0 0.00 0.00 0.00 77 1013.2
20260510005412 12 234 0.0 0.0 0.00 0.00 0.00 77 1013.0
20260510004909 12 201 0.0 0.0 0.00 0.00 0.00 77 1013.1
20260510004407 12 261 0.0 0.0 0.00 0.00 0.00 76 1012.8
20260510003904 12 253 0.0 0.0 0.00 0.00 0.00 76 1012.6
20260510003401 13 244 0.0 0.0 0.00 0.00 0.00 74 1012.7
20260510002900 13 251 0.0 0.0 0.00 0.00 0.00 73 1012.5
20260510002358 13 225 0.0 0.0 0.00 0.00 0.00 74 1012.4
20260510001854 13 245 0.0 0.0 0.00 0.00 0.00 73 1012.6
20260510001352 13 217 0.0 0.0 0.00 0.00 0.00 73 1012.4
20260510000848 14 231 0.0 0.0 0.00 0.00 0.00 72 1012.5
20260510000345 15 233 0.0 0.0 0.00 0.00 0.00 69 1012.4
20260509235842 15 233 0.0 0.0 0.00 0.00 0.00 69 1012.4
20260509235338 15 271 0.0 0.0 0.00 0.00 0.00 70 1012.4
20260509234834 15 277 0.0 0.0 0.00 0.00 0.00 68 1012.7
20260509234331 15 276 0.0 0.0 0.00 0.00 0.00 70 1012.4
20260509233829 15 272 0.0 1.6 0.00 0.00 0.00 68 1012.5
20260509233327 15 254 0.0 1.6 0.00 0.00 0.00 65 1012.3
20260509232822 16 275 0.0 3.2 0.00 0.00 0.00 63 1012.2
20260509232320 16 262 1.6 3.2 0.00 0.00 0.00 57 1012.4
20260509231816 17 283 3.2 3.2 0.00 0.00 0.00 57 1012.0
20260509231313 17 267 1.6 9.7 0.00 0.00 0.00 60 1012.2
20260509230811 17 273 0.0 1.6 0.00 0.00 0.00 56 1012.2
20260509230308 18 286 3.2 6.4 0.00 0.00 0.00 54 1012.4
20260509225802 18 271 1.6 4.8 0.00 0.00 0.00 51 1012.3
20260509225300 18 283 6.4 9.7 0.00 0.00 0.00 51 1012.5
20260509224755 18 212 1.6 3.2 0.00 0.00 0.00 50 1012.6
20260509224252 17 223 0.0 3.2 0.00 0.00 0.00 53 1012.6
20260509223749 17 228 0.0 3.2 0.00 0.00 0.00 52 1012.5
20260509223246 17 265 6.4 14.5 0.00 0.00 0.00 53 1012.6
20260509222743 18 187 3.2 12.9 0.00 0.00 0.00 51 1012.6
20260509222238 18 208 4.8 6.4 0.00 0.00 0.00 50 1012.5
20260509221734 18 207 6.4 12.9 0.00 0.00 0.00 50 1012.5
20260509221231 18 259 1.6 4.8 0.00 0.00 0.00 50 1012.7
20260509220726 18 263 0.0 4.8 0.00 0.00 0.00 52 1012.8
20260509220223 18 258 1.6 4.8 0.00 0.00 0.00 49 1012.6
20260509215719 18 200 0.0 4.8 0.00 0.00 0.00 50 1012.7
20260509215215 18 263 3.2 6.4 0.00 0.00 0.00 51 1012.6
20260509214713 18 263 3.2 6.4 0.00 0.00 0.00 51 1012.6
20260509214210 18 278 4.8 14.5 0.00 0.00 0.00 50 1012.6
20260509213707 18 216 6.4 11.3 0.00 0.00 0.00 50 1012.7
20260509213202 18 285 6.4 9.7 0.00 0.00 0.00 51 1012.4
20260509212700 18 158 1.6 3.2 0.00 0.00 0.00 49 1012.5
20260509212157 18 269 8.0 12.9 0.00 0.00 0.00 50 1012.3
20260509211652 18 269 8.0 12.9 0.00 0.00 0.00 50 1012.3
20260509211149 18 235 4.8 6.4 0.00 0.00 0.00 50 1012.2
20260509210646 18 258 4.8 6.4 0.00 0.00 0.00 50 1012.3
20260509210143 18 259 8.0 9.7 0.00 0.00 0.00 49 1011.9
20260509205638 18 281 6.4 9.7 0.00 0.00 0.00 49 1011.8
20260509205132 18 293 9.7 11.3 0.00 0.00 0.00 51 1011.9
20260509204629 18 284 9.7 14.5 0.00 0.00 0.00 49 1011.8
20260509204125 18 245 6.4 6.4 0.00 0.00 0.00 49 1011.8
20260509203621 18 251 1.6 9.7 0.00 0.00 0.00 48 1011.9
20260509203120 19 274 6.4 9.7 0.00 0.00 0.00 48 1011.7
20260509202620 19 280 9.7 12.9 0.00 0.00 0.00 48 1011.6
20260509202116 20 28 8.0 16.1 0.00 0.00 0.00 46 1011.5
20260509201615 19 247 3.2 12.9 0.00 0.00 0.00 47 1011.7
20260509201114 18 239 6.4 12.9 0.00 0.00 0.00 47 1011.5
20260509200615 18 228 3.2 12.9 0.00 0.00 0.00 49 1011.7
20260509200110 18 263 3.2 6.4 0.00 0.00 0.00 49 1011.5
20260509195607 18 268 4.8 14.5 0.00 0.00 0.00 46 1011.6
20260509195101 18 300 9.7 17.7 0.00 0.00 0.00 47 1011.7
20260509194601 18 290 14.5 14.5 0.00 0.00 0.00 47 1011.4
20260509194059 19 207 8.0 12.9 0.00 0.00 0.00 46 1011.5
20260509193554 20 287 8.0 14.5 0.00 0.00 0.00 44 1011.6
20260509193050 20 254 9.7 11.3 0.00 0.00 0.00 47 1011.6
20260509192547 20 158 6.4 12.9 0.00 0.00 0.00 47 1011.6
20260509192042 20 239 4.8 14.5 0.00 0.00 0.00 45 1011.4
20260509191537 19 277 3.2 9.7 0.00 0.00 0.00 45 1011.6
20260509191033 18 185 3.2 14.5 0.00 0.00 0.00 47 1011.5
20260509190530 18 287 6.4 20.9 0.00 0.00 0.00 47 1011.6
20260509190028 19 218 4.8 16.1 0.00 0.00 0.00 44 1011.7
20260509185525 18 218 3.2 11.3 0.00 0.00 0.00 46 1011.6
20260509185021 19 241 4.8 6.4 0.00 0.00 0.00 49 1011.8
20260509184520 18 175 4.8 6.4 0.00 0.00 0.00 48 1011.7
20260509184016 18 279 9.7 16.1 0.00 0.00 0.00 44 1011.6
20260509183511 18 159 1.6 6.4 0.00 0.00 0.00 48 1011.8
20260509183007 18 288 14.5 16.1 0.00 0.00 0.00 45 1011.8
20260509182504 19 250 4.8 6.4 0.00 0.00 0.00 51 1011.7
20260509182000 18 261 3.2 11.3 0.00 0.00 0.00 50 1011.6
20260509181459 18 177 6.4 12.9 0.00 0.00 0.00 52 1011.8
20260509180956 18 191 6.4 16.1 0.00 0.00 0.00 51 1011.8
20260509180451 18 307 8.0 9.7 0.00 0.00 0.00 51 1011.8
20260509175949 18 252 3.2 6.4 0.00 0.00 0.00 54 1011.9
20260509175444 18 217 3.2 11.3 0.00 0.00 0.00 53 1011.9
20260509174941 18 163 11.3 16.1 0.00 0.00 0.00 52 1012.2
20260509174437 17 219 8.0 16.1 0.00 0.00 0.00 54 1012.2
20260509173933 17 176 9.7 16.1 0.00 0.00 0.00 55 1012.0
20260509173433 18 166 6.4 12.9 0.00 0.00 0.00 56 1012.3
20260509172929 18 196 8.0 9.7 0.00 0.00 0.00 56 1012.2
20260509172427 17 278 4.8 9.7 0.00 0.00 0.00 56 1012.4
20260509171922 17 179 6.4 11.3 0.00 0.00 0.00 57 1012.3
20260509171418 17 246 3.2 4.8 0.00 0.00 0.00 57 1012.4
20260509170915 17 185 4.8 6.4 0.00 0.00 0.00 57 1012.5
20260509170410 16 213 3.2 12.9 0.00 0.00 0.00 59 1012.5
20260509165907 17 287 1.6 6.4 0.00 0.00 0.00 57 1012.5
20260509165401 16 287 3.2 9.7 0.00 0.00 0.00 57 1012.7
20260509164857 16 216 1.6 9.7 0.00 0.00 0.00 59 1012.8
20260509164353 16 236 1.6 6.4 0.00 0.00 0.00 57 1012.7
20260509163849 16 249 3.2 11.3 0.00 0.00 0.00 58 1012.7
20260509163346 16 264 6.4 6.4 0.00 0.00 0.00 59 1012.7
20260509162845 16 276 3.2 3.2 0.00 0.00 0.00 59 1012.7
20260509162344 16 207 1.6 4.8 0.00 0.00 0.00 58 1012.7
20260509161840 16 263 1.6 9.7 0.00 0.00 0.00 60 1012.7
20260509161336 16 190 0.0 0.0 0.00 0.00 0.00 59 1012.7
20260509160832 16 156 3.2 3.2 0.00 0.00 0.00 57 1012.7
20260509160329 16 206 0.0 0.0 0.00 0.00 0.00 58 1012.7
20260509155823 15 215 0.0 1.6 0.00 0.00 0.00 59 1012.5
20260509155320 15 286 3.2 6.4 0.00 0.00 0.00 58 1012.7
20260509154817 16 209 0.0 3.2 0.00 0.00 0.00 57 1012.7
20260509154313 16 177 3.2 4.8 0.00 0.00 0.00 56 1012.8
20260509153810 16 301 3.2 4.8 0.00 0.00 0.00 56 1012.8
20260509153307 15 312 1.6 6.4 0.00 0.00 0.00 56 1013.0
20260509152803 15 302 6.4 9.7 0.00 0.00 0.00 55 1012.9
20260509152259 16 317 3.2 6.4 0.00 0.00 0.00 55 1012.9
20260509151757 16 122 1.6 4.8 0.00 0.00 0.00 56 1012.9
20260509151253 16 326 4.8 6.4 0.00 0.00 0.00 58 1012.8
20260509150752 15 292 3.2 11.3 0.00 0.00 0.00 55 1012.9
20260509150249 16 257 3.2 11.3 0.00 0.00 0.00 54 1012.9
20260509145746 16 291 3.2 11.3 0.00 0.00 0.00 55 1013.0
20260509145245 16 260 6.4 6.4 0.00 0.00 0.00 54 1012.9
20260509144743 16 301 6.4 9.7 0.00 0.00 0.00 54 1012.7
20260509144239 16 190 1.6 9.7 0.00 0.00 0.00 56 1012.8
20260509143736 16 249 0.0 0.0 0.00 0.00 0.00 54 1012.6
20260509143234 16 339 3.2 6.4 0.00 0.00 0.00 53 1012.4
20260509142730 16 303 6.4 9.7 0.00 0.00 0.00 56 1012.5
20260509142226 17 357 1.6 9.7 0.00 0.00 0.00 51 1012.5
20260509141722 17 273 3.2 6.4 0.00 0.00 0.00 51 1012.4
20260509141220 16 137 4.8 12.9 0.00 0.00 0.00 52 1012.3
20260509140716 16 202 4.8 4.8 0.00 0.00 0.00 56 1012.3
20260509140213 16 293 6.4 6.4 0.00 0.00 0.00 54 1012.3
20260509135710 15 122 6.4 6.4 0.00 0.00 0.00 60 1012.2
20260509135208 15 306 0.0 0.0 0.00 0.00 0.00 63 1012.3
20260509134705 16 43 0.0 9.7 0.00 0.00 0.00 61 1012.4
20260509134202 15 142 0.0 0.0 0.00 0.00 0.00 65 1012.5
20260509133659 15 126 1.6 3.2 0.00 0.00 0.00 66 1012.6
20260509133156 15 177 0.0 0.0 0.00 0.00 0.00 61 1012.7
20260509132654 13 241 0.0 0.0 0.00 0.00 0.00 64 1012.8
20260509132153 14 70 0.0 1.6 0.00 0.00 0.00 62 1012.8
20260509131649 13 67 1.6 3.2 0.00 0.00 0.00 63 1012.9
20260509131146 12 106 0.0 0.0 0.00 0.00 0.00 65 1013.2
20260509130641 12 123 0.0 0.0 0.00 0.00 0.00 66 1013.1
20260509130138 12 135 0.0 0.0 0.00 0.00 0.00 66 1013.1
20260509125635 12 270 0.0 0.0 0.00 0.00 0.00 70 1013.2
20260509125131 12 59 0.0 0.0 0.00 0.00 0.00 68 1013.1
20260509124628 11 134 0.0 0.0 0.00 0.00 0.00 68 1012.9
20260509124125 11 125 0.0 0.0 0.00 0.00 0.00 72 1013.2
20260509123623 11 52 0.0 3.2 0.00 0.00 0.00 75 1013.2
20260509123119 11 131 1.6 3.2 0.00 0.00 0.00 76 1013.3
20260509122615 11 106 0.0 0.0 0.00 0.00 0.00 75 1013.2
20260509122113 10 151 0.0 4.8 0.00 0.00 0.00 77 1013.0
20260509121609 10 98 0.0 1.6 0.00 0.00 0.00 78 1013.2
20260509121107 10 136 0.0 1.6 0.00 0.00 0.00 78 1013.2
20260509120605 10 46 1.6 3.2 0.00 0.00 0.00 78 1013.1
20260509115559 10 35 1.6 3.2 0.00 0.00 0.00 77 1013.2
20260509115057 9 48 1.6 3.2 0.00 0.00 0.00 81 1013.2
20260509114555 9 43 3.2 4.8 0.00 0.00 0.00 81 1013.2
20260509114054 9 38 3.2 4.8 0.00 0.00 0.00 83 1013.3
20260509113552 8 62 4.8 6.4 0.00 0.00 0.00 82 1013.4
20260509113049 8 45 4.8 9.7 0.00 0.00 0.00 85 1013.3
20260509112545 9 42 4.8 6.4 0.00 0.00 0.00 85 1013.4
20260509112042 9 118 0.0 0.0 0.00 0.00 0.00 81 1013.2
20260509111540 8 126 0.0 0.0 0.00 0.00 0.00 83 1013.2
20260509111037 8 128 0.0 0.0 0.00 0.00 0.00 85 1013.1
20260509110533 8 128 0.0 0.0 0.00 0.00 0.00 85 1013.1
20260509110030 9 123 0.0 0.0 0.00 0.00 0.00 84 1013.0
20260509105529 9 130 0.0 0.0 0.00 0.00 0.00 76 1013.2
20260509105026 8 245 0.0 0.0 0.00 0.00 0.00 81 1013.1
20260509104523 8 232 0.0 0.0 0.00 0.00 0.00 84 1013.1
20260509104020 8 210 0.0 0.0 0.00 0.00 0.00 85 1013.0
20260509103518 8 210 0.0 0.0 0.00 0.00 0.00 85 1013.0
20260509103016 8 118 0.0 0.0 0.00 0.00 0.00 85 1012.9
20260509102513 8 96 0.0 0.0 0.00 0.00 0.00 86 1012.9
20260509102009 8 97 0.0 0.0 0.00 0.00 0.00 85 1013.0
20260509101506 8 78 0.0 0.0 0.00 0.00 0.00 83 1012.8
20260509101003 8 78 0.0 0.0 0.00 0.00 0.00 83 1012.8
20260509100500 8 78 0.0 0.0 0.00 0.00 0.00 83 1012.8
20260509095956 8 85 0.0 0.0 0.00 0.00 0.00 82 1012.8
20260509095453 9 103 0.0 0.0 0.00 0.00 0.00 81 1012.9
20260509094951 9 103 0.0 0.0 0.00 0.00 0.00 80 1012.9
20260509094447 9 264 0.0 0.0 0.00 0.00 0.00 79 1012.9
20260509093944 9 264 0.0 0.0 0.00 0.00 0.00 79 1012.9